.
WxDataArchive / Data Records for 2007-03-06
2007-03-05 March 2007 2007-03-07

Data Records for Tuesday, 06 March 2007

Time	Temp	Chill	HIndex	Humid	Dewpt	 Wind 	HiWind	WindDir	Rain 	Barom 
-----	----	-----	------	-----	-----	------	------	-------	-----	----- 
00:00	14.6	14.6	14.6	56	1.8	1	5	315	0.00	30.510 
00:05	14.4	14.4	14.4	56	1.6	1	3	338	0.00	30.511 
00:10	14.3	14.3	14.3	56	1.5	0	2	338	0.00	30.516 
00:15	14.3	14.3	14.3	55	1.1	1	5	338	0.00	30.517 
00:20	14.3	14.3	14.3	55	1.1	1	4	0	0.00	30.516 
00:25	14.1	14.1	14.1	54	0.5	1	5	22	0.00	30.514 
00:30	14.0	14.0	14.0	54	0.5	0	1	315	0.00	30.512 
00:35	14.0	14.0	14.0	54	0.5	1	3	315	0.00	30.515 
00:40	14.0	14.0	14.0	54	0.5	1	3	338	0.00	30.517 
00:45	13.8	13.8	13.8	52	-0.5	2	6	0	0.00	30.518 
00:50	13.8	13.8	13.8	52	-0.5	1	5	45	0.00	30.518 
00:55	13.8	13.8	13.8	52	-0.5	1	9	22	0.00	30.519 
01:00	13.6	13.6	13.6	52	-0.7	1	6	45	0.00	30.521 
01:05	13.5	13.5	13.5	54	-0.0	1	3	0	0.00	30.522 
01:10	13.5	13.5	13.5	54	-0.0	1	3	0	0.00	30.522 
01:15	13.3	13.3	13.3	54	-0.2	1	4	22	0.00	30.521 
01:20	13.3	13.3	13.3	53	-0.6	2	5	0	0.00	30.522 
01:25	13.3	13.3	13.3	53	-0.6	1	5	22	0.00	30.523 
01:30	13.3	13.3	13.3	52	-1.0	1	4	22	0.00	30.528 
01:35	13.1	13.1	13.1	53	-0.8	0	3	338	0.00	30.531 
01:40	13.1	13.1	13.1	52	-1.2	1	5	22	0.00	30.533 
01:45	12.9	12.9	12.9	52	-1.4	1	4	0	0.00	30.531 
01:50	12.9	12.9	12.9	54	-0.6	0	2	0	0.00	30.528 
01:55	12.8	12.8	12.8	54	-0.7	0	6	0	0.00	30.530 
02:00	12.6	12.6	12.6	54	-0.9	0	3	22	0.00	30.530 
02:05	12.4	12.4	12.4	54	-1.0	0	2	45	0.00	30.534 
02:10	12.4	12.4	12.4	55	-0.7	0	2	22	0.00	30.537 
02:15	12.3	12.3	12.3	55	-0.7	0	2	0	0.00	30.539 
02:20	12.3	12.3	12.3	55	-0.7	0	1	0	0.00	30.541 
02:25	12.1	12.1	12.1	56	-0.6	0	1	0	0.00	30.542 
02:30	11.9	11.9	11.9	57	-0.4	0	1	0	0.00	30.547 
02:35	11.9	11.9	11.9	57	-0.4	0	1	0	0.00	30.547 
02:40	11.7	11.7	11.7	57	-0.6	0	2	0	0.00	30.547 
02:45	11.6	11.6	11.6	58	-0.3	0	1	0	0.00	30.549 
02:50	11.6	11.6	11.6	58	-0.3	0	1	0	0.00	30.552 
02:55	11.4	11.4	11.4	59	-0.1	0	1	0	0.00	30.551 
03:00	11.4	11.4	11.4	59	-0.1	0	2	0	0.00	30.555 
03:05	11.2	11.2	11.2	59	-0.3	0	1	0	0.00	30.557 
03:10	11.2	11.2	11.2	60	0.1	0	1	0	0.00	30.558 
03:15	11.2	11.2	11.2	59	-0.3	0	2	0	0.00	30.558 
03:20	11.2	11.2	11.2	59	-0.3	1	4	68	0.00	30.558 
03:25	11.1	11.1	11.1	60	-0.0	0	3	112	0.00	30.558 
03:30	11.1	11.1	11.1	59	-0.4	0	1	112	0.00	30.557 
03:35	10.9	10.9	10.9	60	-0.2	0	1	112	0.00	30.557 
03:40	10.7	10.7	10.7	60	-0.4	0	1	112	0.00	30.558 
03:45	10.5	10.5	10.5	60	-0.6	0	1	112	0.00	30.557 
03:50	10.5	10.5	10.5	60	-0.6	0	1	112	0.00	30.556 
03:55	10.4	10.4	10.4	60	-0.7	0	1	112	0.00	30.557 
04:00	10.4	10.4	10.4	60	-0.7	0	2	180	0.00	30.558 
04:05	10.4	10.4	10.4	59	-1.1	0	2	338	0.00	30.560 
04:10	10.4	10.4	10.4	59	-1.1	0	1	338	0.00	30.560 
04:15	10.4	10.4	10.4	59	-1.1	0	1	338	0.00	30.565 
04:20	10.4	10.4	10.4	60	-0.7	0	1	338	0.00	30.564 
04:25	10.2	10.2	10.2	60	-0.9	0	1	338	0.00	30.566 
04:30	10.0	10.0	10.0	61	-0.7	0	1	338	0.00	30.561 
04:35	10.0	10.0	10.0	61	-0.7	0	1	90	0.00	30.560 
04:40	9.9	9.9	9.9	61	-0.8	0	1	90	0.00	30.562 
04:45	9.9	9.9	9.9	62	-0.5	0	2	90	0.00	30.561 
04:50	9.9	9.9	9.9	62	-0.5	0	2	90	0.00	30.563 
04:55	9.9	9.9	9.9	62	-0.5	0	1	90	0.00	30.567 
05:00	9.7	9.7	9.7	62	-0.7	0	1	90	0.00	30.562 
05:05	9.7	9.7	9.7	62	-0.7	0	1	90	0.00	30.564 
05:10	9.7	9.7	9.7	62	-0.7	0	1	90	0.00	30.565 
05:15	9.7	9.7	9.7	62	-0.7	0	3	68	0.00	30.570 
05:20	9.7	9.7	9.7	62	-0.7	0	2	68	0.00	30.571 
05:25	9.7	9.7	9.7	62	-0.7	0	2	90	0.00	30.573 
05:30	9.5	9.5	9.5	62	-0.9	0	1	90	0.00	30.573 
05:35	9.5	9.5	9.5	62	-0.9	0	2	90	0.00	30.571 
05:40	9.5	9.5	9.5	62	-0.9	0	1	90	0.00	30.570 
05:45	9.5	9.5	9.5	62	-0.9	0	2	90	0.00	30.578 
05:50	9.5	9.5	9.5	62	-0.9	0	2	68	0.00	30.579 
05:55	9.3	9.3	9.3	62	-1.0	0	1	135	0.00	30.577 
06:00	9.3	9.3	9.3	62	-1.0	0	0	---	0.00	30.583 
06:05	9.2	9.2	9.2	63	-0.8	0	0	---	0.00	30.585 
06:10	9.0	9.0	9.0	64	-0.7	0	0	---	0.00	30.582 
06:15	8.8	8.8	8.8	64	-0.9	0	0	---	0.00	30.584 
06:20	8.6	8.6	8.6	64	-1.0	0	1	135	0.00	30.587 
06:25	8.6	8.6	8.6	65	-0.7	0	0	---	0.00	30.588 
06:30	8.4	8.4	8.4	65	-0.9	0	0	---	0.00	30.594 
06:35	8.4	8.4	8.4	65	-0.9	0	0	---	0.00	30.595 
06:40	8.3	8.3	8.3	65	-1.0	0	1	135	0.00	30.593 
06:45	8.4	8.4	8.4	65	-0.9	0	1	135	0.00	30.594 
06:50	8.4	8.4	8.4	65	-0.9	0	1	135	0.00	30.596 
06:55	8.4	8.4	8.4	65	-0.9	0	1	135	0.00	30.597 
07:00	8.4	8.4	8.4	65	-0.9	0	0	---	0.00	30.598 
07:05	8.4	8.4	8.4	65	-0.9	0	1	135	0.00	30.599 
07:10	8.4	8.4	8.4	65	-0.9	0	0	---	0.00	30.598 
07:15	8.4	8.4	8.4	66	-0.6	0	1	135	0.00	30.592 
07:20	8.6	8.6	8.6	65	-0.7	0	1	90	0.00	30.594 
07:25	8.8	8.8	8.8	65	-0.5	0	1	90	0.00	30.594 
07:30	9.0	9.0	9.0	65	-0.3	0	1	90	0.00	30.598 
07:35	9.5	9.5	9.5	65	0.1	0	1	90	0.00	30.599 
07:40	10.0	10.0	10.0	63	-0.0	0	1	90	0.00	30.600 
07:45	10.5	10.5	10.5	62	0.1	0	1	90	0.00	30.598 
07:50	10.9	10.9	10.9	61	0.1	0	1	90	0.00	30.598 
07:55	11.2	11.2	11.2	61	0.4	0	2	90	0.00	30.600 
08:00	11.4	11.4	11.4	59	-0.1	0	1	90	0.00	30.612 
08:05	11.6	11.6	11.6	59	0.1	0	2	90	0.00	30.614 
08:10	11.7	11.7	11.7	59	0.2	0	1	90	0.00	30.615 
08:15	11.9	11.9	11.9	58	0.0	1	4	112	0.00	30.615 
08:20	12.1	12.1	12.1	58	0.2	0	3	112	0.00	30.616 
08:25	12.3	12.3	12.3	58	0.4	0	3	90	0.00	30.616 
08:30	12.8	12.8	12.8	58	0.8	2	5	112	0.00	30.612 
08:35	12.9	12.9	12.9	58	0.9	1	6	90	0.00	30.613 
08:40	13.1	13.1	13.1	58	1.1	2	5	112	0.00	30.612 
08:45	13.3	13.3	13.3	58	1.3	2	6	112	0.00	30.610 
08:50	13.1	13.1	13.1	56	0.4	3	6	112	0.00	30.612 
08:55	13.5	13.5	13.5	57	1.1	3	6	90	0.00	30.612 
09:00	13.5	13.5	13.5	57	1.1	3	7	90	0.00	30.612 
09:05	13.8	13.8	13.8	56	1.0	3	7	112	0.00	30.616 
09:10	13.8	13.8	13.8	57	1.4	3	6	90	0.00	30.615 
09:15	14.0	14.0	14.0	56	1.2	3	10	112	0.00	30.614 
09:20	14.3	14.3	14.3	56	1.5	3	9	112	0.00	30.614 
09:25	14.6	14.6	14.6	56	1.8	2	6	90	0.00	30.615 
09:30	14.9	14.9	14.9	56	2.1	3	5	90	0.00	30.612 
09:35	15.1	15.1	15.1	56	2.3	3	5	112	0.00	30.612 
09:40	15.4	15.4	15.4	55	2.2	3	6	90	0.00	30.612 
09:45	15.1	15.1	15.1	56	2.3	3	7	112	0.00	30.609 
09:50	15.4	15.4	15.4	55	2.2	3	7	112	0.00	30.610 
09:55	15.4	15.4	15.4	54	1.8	3	6	112	0.00	30.606 
10:00	15.6	15.6	15.6	54	2.0	3	6	112	0.00	30.610 
10:05	16.2	16.2	16.2	55	2.9	2	5	112	0.00	30.613 
10:10	16.4	16.4	16.4	53	2.3	2	6	112	0.00	30.615 
10:15	16.4	16.4	16.4	53	2.3	1	3	112	0.00	30.613 
10:20	16.5	16.5	16.5	53	2.4	2	5	112	0.00	30.612 
10:25	17.2	17.2	17.2	50	1.8	1	5	90	0.00	30.612 
10:30	17.5	17.5	17.5	47	0.7	2	6	112	0.00	30.606 
10:35	17.2	17.2	17.2	51	2.2	3	9	112	0.00	30.603 
10:40	17.0	17.0	17.0	49	1.2	2	7	112	0.00	30.601 
10:45	17.3	17.3	17.3	52	2.7	2	5	112	0.00	30.597 
10:50	17.3	17.3	17.3	52	2.7	2	6	112	0.00	30.598 
10:55	17.2	17.2	17.2	50	1.8	3	9	112	0.00	30.597 
11:00	17.0	17.0	17.0	50	1.6	3	6	112	0.00	30.599 
11:05	17.5	17.5	17.5	52	2.9	2	5	90	0.00	30.603 
11:10	17.5	17.5	17.5	51	2.5	2	5	112	0.00	30.609 
11:15	17.8	17.8	17.8	53	3.6	1	5	112	0.00	30.608 
11:20	17.8	17.8	17.8	50	2.3	3	9	90	0.00	30.611 
11:25	17.7	17.7	17.7	53	3.5	3	6	112	0.00	30.610 
11:30	17.7	17.7	17.7	51	2.7	3	9	112	0.00	30.606 
11:35	17.5	17.5	17.5	50	2.1	1	4	112	0.00	30.608 
11:40	17.8	17.8	17.8	52	3.2	2	7	112	0.00	30.606 
11:45	18.0	18.0	18.0	51	3.0	2	6	112	0.00	30.609 
11:50	18.1	18.1	18.1	50	2.6	1	4	112	0.00	30.603 
11:55	18.9	18.9	18.9	49	2.9	2	6	112	0.00	30.600 
12:00	19.1	19.1	19.1	50	3.6	2	5	90	0.00	30.597 
12:05	19.4	19.4	19.4	49	3.4	2	7	112	0.00	30.600 
12:10	18.8	12.8	18.8	50	3.3	4	8	112	0.00	30.598 
12:15	18.6	18.6	18.6	49	2.7	1	4	90	0.00	30.594 
12:20	19.1	19.1	19.1	47	2.2	2	6	90	0.00	30.590 
12:25	19.1	19.1	19.1	48	2.7	2	6	112	0.00	30.589 
12:30	19.1	19.1	19.1	50	3.6	2	4	90	0.00	30.586 
12:35	18.9	18.9	18.9	49	2.9	2	6	112	0.00	30.585 
12:40	19.2	19.2	19.2	49	3.2	1	5	112	0.00	30.581 
12:45	19.4	19.4	19.4	48	3.0	2	6	112	0.00	30.581 
12:50	19.5	19.5	19.5	48	3.0	3	9	90	0.00	30.579 
12:55	19.5	19.5	19.5	47	2.6	1	4	90	0.00	30.580 
13:00	20.2	20.2	20.2	46	2.8	2	5	90	0.00	30.577 
13:05	20.3	20.3	20.3	45	2.4	2	5	112	0.00	30.577 
13:10	20.3	20.3	20.3	47	3.3	2	6	112	0.00	30.577 
13:15	20.2	20.2	20.2	46	2.8	2	5	112	0.00	30.579 
13:20	20.2	20.2	20.2	47	3.2	2	9	112	0.00	30.576 
13:25	20.2	20.2	20.2	46	2.8	1	5	90	0.00	30.573 
13:30	20.6	20.6	20.6	46	3.1	1	3	135	0.00	30.567 
13:35	20.8	20.8	20.8	45	2.8	2	5	112	0.00	30.564 
13:40	20.5	20.5	20.5	43	1.6	2	5	90	0.00	30.563 
13:45	20.6	20.6	20.6	46	3.1	1	3	112	0.00	30.557 
13:50	21.0	21.0	21.0	44	2.5	2	6	112	0.00	30.553 
13:55	21.4	21.4	21.4	44	2.9	1	5	112	0.00	30.548 
14:00	21.3	21.3	21.3	46	3.8	3	6	112	0.00	30.545 
14:05	21.4	21.4	21.4	45	3.4	1	4	112	0.00	30.543 
14:10	21.8	21.8	21.8	45	3.8	2	7	112	0.00	30.540 
14:15	22.1	22.1	22.1	46	4.5	1	5	90	0.00	30.535 
14:20	21.8	21.8	21.8	45	3.8	3	6	112	0.00	30.534 
14:25	21.4	21.4	21.4	46	3.9	3	7	90	0.00	30.533 
14:30	21.4	21.4	21.4	47	4.3	2	5	112	0.00	30.528 
14:35	21.9	21.9	21.9	46	4.3	2	5	112	0.00	30.523 
14:40	21.9	21.9	21.9	46	4.3	3	9	90	0.00	30.519 
14:45	21.8	21.8	21.8	46	4.2	3	6	112	0.00	30.519 
14:50	21.9	21.9	21.9	46	4.3	2	7	112	0.00	30.518 
14:55	21.9	21.9	21.9	43	2.9	2	6	112	0.00	30.518 
15:00	22.4	22.4	22.4	44	3.8	2	7	90	0.00	30.515 
15:05	22.4	22.4	22.4	43	3.3	2	4	112	0.00	30.513 
15:10	22.2	22.2	22.2	43	3.1	2	5	90	0.00	30.509 
15:15	22.4	22.4	22.4	44	3.8	1	4	135	0.00	30.504 
15:20	22.5	22.5	22.5	44	3.9	1	4	90	0.00	30.503 
15:25	22.4	22.4	22.4	43	3.3	3	6	112	0.00	30.502 
15:30	22.4	22.4	22.4	46	4.8	2	6	112	0.00	30.498 
15:35	22.4	22.4	22.4	47	5.3	2	7	90	0.00	30.493 
15:40	22.4	22.4	22.4	45	4.3	3	7	112	0.00	30.487 
15:45	22.4	22.4	22.4	44	3.8	3	6	112	0.00	30.484 
15:50	22.2	22.2	22.2	43	3.1	3	10	90	0.00	30.484 
15:55	22.7	22.7	22.7	43	3.6	1	3	135	0.00	30.480 
16:00	23.0	23.0	23.0	44	4.4	2	6	112	0.00	30.476 
16:05	23.0	23.0	23.0	45	4.9	2	5	112	0.00	30.474 
16:10	22.7	22.7	22.7	43	3.6	3	7	112	0.00	30.471 
16:15	22.5	22.5	22.5	42	2.9	3	5	112	0.00	30.469 
16:20	22.7	22.7	22.7	45	4.6	2	7	112	0.00	30.462 
16:25	22.9	22.9	22.9	45	4.8	2	4	112	0.00	30.459 
16:30	23.0	23.0	23.0	44	4.4	1	3	112	0.00	30.457 
16:35	23.2	23.2	23.2	46	5.5	1	3	112	0.00	30.455 
16:40	23.0	23.0	23.0	44	4.4	1	4	90	0.00	30.454 
16:45	23.2	23.2	23.2	46	5.5	0	2	112	0.00	30.450 
16:50	23.0	23.0	23.0	47	5.8	1	6	112	0.00	30.448 
16:55	23.0	23.0	23.0	46	5.3	1	3	112	0.00	30.443 
17:00	22.9	22.9	22.9	48	6.2	1	3	112	0.00	30.437 
17:05	23.0	23.0	23.0	47	5.8	1	4	112	0.00	30.437 
17:10	23.0	23.0	23.0	49	6.7	1	3	135	0.00	30.431 
17:15	22.9	22.9	22.9	49	6.6	2	5	112	0.00	30.429 
17:20	23.0	23.0	23.0	50	7.2	1	3	112	0.00	30.430 
17:25	23.0	23.0	23.0	48	6.3	1	3	135	0.00	30.427 
17:30	23.0	23.0	23.0	51	7.6	1	3	135	0.00	30.425 
17:35	23.2	23.2	23.2	50	7.4	1	4	112	0.00	30.425 
17:40	23.2	23.2	23.2	49	6.9	1	3	112	0.00	30.424 
17:45	23.2	23.2	23.2	51	7.8	1	3	90	0.00	30.424 
17:50	23.2	23.2	23.2	51	7.8	1	3	112	0.00	30.423 
17:55	23.2	23.2	23.2	52	8.2	2	5	90	0.00	30.424 
18:00	23.0	23.0	23.0	51	7.6	1	3	112	0.00	30.422 
18:05	23.2	23.2	23.2	52	8.2	1	4	112	0.00	30.421 
18:10	23.2	23.2	23.2	51	7.8	1	3	112	0.00	30.419 
18:15	23.2	23.2	23.2	50	7.4	1	4	112	0.00	30.411 
18:20	23.2	23.2	23.2	50	7.4	2	5	112	0.00	30.409 
18:25	23.2	23.2	23.2	51	7.8	1	3	112	0.00	30.407 
18:30	23.2	23.2	23.2	52	8.2	1	5	112	0.00	30.406 
18:35	23.2	23.2	23.2	51	7.8	1	4	112	0.00	30.406 
18:40	23.2	23.2	23.2	51	7.8	1	3	112	0.00	30.408 
18:45	23.3	23.3	23.3	52	8.3	1	4	135	0.00	30.406 
18:50	23.3	23.3	23.3	52	8.3	0	2	112	0.00	30.406 
18:55	23.3	23.3	23.3	53	8.7	2	4	112	0.00	30.404 
19:00	23.3	23.3	23.3	51	7.9	3	7	112	0.00	30.393 
19:05	23.3	23.3	23.3	52	8.3	3	5	112	0.00	30.389 
19:10	23.3	23.3	23.3	53	8.7	2	5	112	0.00	30.382 
19:15	23.3	23.3	23.3	52	8.3	2	5	112	0.00	30.385 
19:20	23.5	23.5	23.5	53	8.9	2	5	112	0.00	30.379 
19:25	23.5	23.5	23.5	54	9.3	2	6	112	0.00	30.375 
19:30	23.3	23.3	23.3	57	10.3	3	5	112	0.00	30.372 
19:35	23.0	23.0	23.0	58	10.5	3	6	112	0.00	30.372 
19:40	22.9	22.9	22.9	58	10.4	3	6	90	0.00	30.371 
19:45	22.7	22.7	22.7	59	10.6	3	5	112	0.00	30.364 
19:50	22.7	17.3	22.7	59	10.6	4	6	90	0.00	30.360 
19:55	22.9	22.9	22.9	59	10.7	2	5	112	0.00	30.358 
20:00	22.9	22.9	22.9	59	10.7	3	5	90	0.00	30.358 
20:05	22.9	22.9	22.9	60	11.1	2	5	90	0.00	30.357 
20:10	23.0	23.0	23.0	60	11.2	2	5	112	0.00	30.357 
20:15	23.0	23.0	23.0	59	10.8	3	5	112	0.00	30.356 
20:20	22.9	22.9	22.9	60	11.1	2	4	90	0.00	30.355 
20:25	22.9	22.9	22.9	59	10.7	3	7	112	0.00	30.352 
20:30	22.7	22.7	22.7	59	10.6	3	6	90	0.00	30.352 
20:35	22.7	22.7	22.7	60	10.9	2	6	90	0.00	30.353 
20:40	22.9	22.9	22.9	60	11.1	2	4	90	0.00	30.348 
20:45	22.7	22.7	22.7	59	10.6	3	5	112	0.00	30.349 
20:50	22.7	22.7	22.7	58	10.2	3	6	112	0.00	30.347 
20:55	22.7	22.7	22.7	60	10.9	3	6	112	0.00	30.341 
21:00	22.7	22.7	22.7	60	10.9	2	5	112	0.00	30.341 
21:05	22.7	22.7	22.7	60	10.9	2	5	112	0.00	30.338 
21:10	22.7	22.7	22.7	60	10.9	2	5	112	0.00	30.337 
21:15	22.7	22.7	22.7	60	10.9	2	6	90	0.00	30.337 
21:20	22.7	22.7	22.7	59	10.6	3	5	112	0.00	30.334 
21:25	22.5	22.5	22.5	59	10.4	3	5	90	0.00	30.329 
21:30	22.5	22.5	22.5	59	10.4	2	5	90	0.00	30.325 
21:35	22.5	22.5	22.5	60	10.7	2	6	90	0.00	30.323 
21:40	22.5	22.5	22.5	59	10.4	3	7	90	0.00	30.323 
21:45	22.5	22.5	22.5	59	10.4	3	7	90	0.00	30.320 
21:50	22.5	22.5	22.5	60	10.7	2	5	90	0.00	30.321 
21:55	22.5	17.1	22.5	58	10.0	4	9	90	0.00	30.320 
22:00	22.5	22.5	22.5	60	10.7	2	6	112	0.00	30.317 
22:05	22.5	22.5	22.5	59	10.4	3	7	112	0.00	30.313 
22:10	22.5	22.5	22.5	59	10.4	3	6	90	0.00	30.319 
22:15	22.5	22.5	22.5	59	10.4	3	6	112	0.00	30.316 
22:20	22.7	22.7	22.7	59	10.6	2	6	112	0.00	30.313 
22:25	22.7	22.7	22.7	59	10.6	3	5	112	0.00	30.308 
22:30	22.7	22.7	22.7	61	11.3	2	5	112	0.00	30.306 
22:35	22.7	22.7	22.7	59	10.6	3	6	112	0.00	30.306 
22:40	22.7	22.7	22.7	61	11.3	1	6	112	0.00	30.307 
22:45	22.7	22.7	22.7	60	10.9	2	5	112	0.00	30.305 
22:50	22.7	22.7	22.7	61	11.3	1	4	90	0.00	30.304 
22:55	22.7	22.7	22.7	60	10.9	2	3	90	0.00	30.300 
23:00	22.7	22.7	22.7	59	10.6	3	7	112	0.00	30.290 
23:05	22.7	22.7	22.7	60	10.9	3	6	112	0.00	30.287 
23:10	22.7	22.7	22.7	60	10.9	2	5	90	0.00	30.287 
23:15	22.7	22.7	22.7	59	10.6	3	7	90	0.00	30.285 
23:20	22.5	22.5	22.5	59	10.4	2	5	90	0.00	30.286 
23:25	22.7	22.7	22.7	60	10.9	1	4	112	0.00	30.283 
23:30	22.7	22.7	22.7	60	10.9	2	5	112	0.00	30.273 
23:35	22.7	22.7	22.7	61	11.3	2	5	90	0.00	30.272 
23:40	22.5	22.5	22.5	63	11.8	2	4	112	0.00	30.270 
23:45	22.4	22.4	22.4	68	13.5	1	6	112	0.00	30.272 
23:50	22.1	22.1	22.1	71	14.2	3	5	112	0.00	30.273 
23:55	21.6	21.6	21.6	75	14.9	2	5	90	0.00	30.273 

CoCoRaHS
IN-AL-39
A2 Web Hosting
Creative Commons License
GoDaddy
Look for:

loaded 2017-12-11 14:20:14 • last modified 2010-11-18 10:43:29
Privacy PolicyDisclaimer
• wx.awcolley.com is powered by PmWiki v.2002016 •
• all content (unless otherwise noted) © 2017 A W Colley